Terminal Aerodrome Forecast
Issued by NWS

Home | Current Version | Previous Version | Text Only | Print | Product List | Glossary On
Versions: 1 2 3 4 5 6 7 8 9 10 11 12 13 14 15 16 17 18 19 20 21 22 23 24 25 26 27 28 29 30 31 32 33 34 35 36 37 38 39 40 41 42 43 44
000
FTUS46 KPQR 030531
TAFONP
TAF
KONP 030531Z 0306/0406 34010KT 4SM BR SCT004
     FM030800 34005KT 1SM BR BKN004
     FM031600 31010KT 3SM BR OVC007
     FM031900 32012G18KT 6SM BR SCT007=

USA.gov is the U.S. government's official web portal to all federal, state and local government web resources and services.